Temperature
8 7 6 6 5 5 5 4 4 4 3 3 3 3 3 2 2 2 1 1 1 1 0 0 0 0 0 0 0 0 0 0 0 0 1 1 2 2 2 2 2 2 3
6 6 5 5 4 4 4 4 3 3 3 3 3 3 3 2 2 2 1 1 0 -0 -0 -1 -1 -1 -0 -0 -0 -0 0 0 0 0 1 1 1 2 2 2 2 2 3
5 5 4 4 4 4 4 3 3 3 3 3 3 3 3 2 2 2 1 1 -0 -1 -1 -1 -1 -1 -1 -1 -1 -0 -0 0 0 0 0 0 1 2 2 2 2 2 2
5 4 4 4 4 4 3 3 3 3 3 3 3 3 3 2 2 1 1 0 -1 -1 -1 -2 -2 -1 -1 -1 -1 -1 -0 -0 -0 -0 -0 0 1 1 1 2 2 2 2
5 4 4 4 4 4 4 4 4 3 3 3 3 3 2 2 2 1 0 -1 -1 -2 -2 -1 -1 -1 -2 -2 -1 -1 -1 -0 -0 -0 -0 0 1 1 2 2 2 2 2
4 4 4 4 4 4 4 4 4 4 4 3 3 3 2 2 1 0 -1 -1 -2 -2 -2 -1 -1 -1 -1 -1 -1 -1 -1 -0 -0 -0 0 0 1 1 2 2 2 2 2
4 4 4 4 4 4 4 4 4 4 4 3 3 2 2 1 0 -0 -1 -2 -2 -2 -2 -2 -2 -1 -1 -1 -1 -0 -0 0 0 1 1 1 2 2 2 2 2 2 2
4 4 4 4 4 4 4 4 4 4 4 3 2 1 1 0 -1 -1 -2 -2 -2 -2 -2 -2 -1 -1 -1 -1 -1 -0 0 1 1 1 2 2 2 2 2 2 2 2 2
4 4 4 5 5 5 5 4 4 4 3 2 1 0 -1 -1 -2 -2 -3 -3 -2 -2 -1 -1 -1 -1 -1 -1 -1 -0 0 1 1 2 2 2 2 2 2 2 2 2 2
4 4 5 5 5 5 4 4 3 2 1 0 -0 -1 -2 -2 -3 -3 -3 -3 -2 -2 -1 -1 -1 -1 -1 -1 -0 0 1 1 1 2 2 2 2 2 2 2 2 2 1
4 5 5 5 4 4 3 2 2 1 -0 -1 -2 -2 -3 -3 -3 -3 -3 -3 -2 -2 -1 -1 -1 -1 -1 -0 0 1 1 1 1 2 2 2 2 2 2 1 1 1 1
4 4 4 4 3 3 2 1 0 -0 -1 -2 -2 -3 -3 -3 -3 -3 -2 -2 -1 -1 -1 -1 -1 -0 -0 0 1 1 1 1 1 1 1 1 1 1 1 1 0 0 0
4 4 3 3 2 1 1 -0 -1 -1 -2 -3 -3 -3 -3 -3 -3 -2 -1 -1 -1 -1 -1 -1 -0 0 1 1 1 1 1 1 1 1 1 0 -0 -0 -0 -0 -1 -1 -0
4 3 2 2 1 0 -0 -1 -2 -2 -2 -3 -3 -3 -3 -3 -3 -2 -1 -1 -1 -1 -1 -0 0 0 1 1 1 1 1 1 1 0 -0 -1 -1 -1 -1 -1 -1 -1 -1
3 2 1 1 -0 -1 -1 -2 -2 -2 -3 -3 -3 -3 -3 -3 -2 -2 -1 -1 -1 -1 -1 -0 0 0 1 1 1 1 1 0 0 -0 -1 -1 -1 -1 -1 -1 -1 -1 -1
2 1 0 -0 -1 -1 -2 -2 -2 -2 -3 -3 -3 -3 -2 -2 -2 -1 -1 -1 -1 -1 -1 -0 -0 0 0 1 1 0 0 -0 -1 -1 -1 -1 -2 -1 -1 -1 -1 -1 -1
2 1 -0 -1 -1 -2 -2 -2 -2 -2 -2 -2 -2 -2 -2 -2 -2 -1 -1 -1 -1 -1 -1 -0 -0 0 0 0 0 0 -0 -0 -1 -1 -2 -2 -2 -1 -1 -1 -1 -1 -1
2 0 -1 -1 -2 -2 -2 -2 -2 -2 -2 -2 -2 -2 -2 -2 -2 -1 -1 -1 -1 -1 -1 -1 -0 -0 0 0 0 0 -0 -1 -1 -1 -2 -1 -1 -1 -1 -1 -1 -1 -1
1 -0 -1 -1 -2 -2 -2 -2 -3 -3 -3 -2 -2 -2 -2 -2 -1 -1 -1 -1 -1 -1 -1 -1 -0 -0 -0 -0 0 0 -0 -1 -1 -1 -1 -1 -1 -1 -1 -1 -1 -1 -1
1 -0 -1 -1 -2 -2 -2 -2 -3 -3 -3 -2 -2 -2 -2 -2 -2 -1 -1 -1 -1 -1 -1 -1 -1 -0 -0 -0 -0 -0 -0 -1 -1 -1 -1 -1 -1 -1 -1 -1 -1 -0 -0
1 -0 -1 -1 -1 -2 -2 -2 -2 -3 -3 -3 -2 -2 -2 -2 -2 -2 -1 -1 -1 -1 -1 -1 -1 -1 -1 -1 -0 -0 -0 -1 -1 -1 -1 -1 -1 -1 -1 -0 -0 -0 -0
1 0 -0 -1 -1 -1 -2 -2 -2 -2 -3 -3 -3 -2 -2 -2 -2 -2 -1 -1 -1 -1 -1 -1 -1 -1 -1 -1 -1 -1 -1 -1 -1 -1 -1 -1 -1 -1 -0 -0 -0 -0 -0
1 0 -0 -1 -1 -1 -1 -2 -2 -2 -2 -3 -3 -3 -2 -2 -2 -2 -2 -1 -1 -1 -1 -1 -0 -0 -1 -1 -1 -1 -1 -1 -1 -1 -1 -1 -1 -0 -0 -0 -0 -0 -0
1 0 -0 -0 -0 -1 -1 -1 -1 -2 -2 -2 -3 -3 -2 -2 -2 -2 -1 -1 -1 -1 -1 -1 -1 -0 -0 -0 -1 -1 -1 -1 -1 -1 -1 -0 -0 -0 -0 -0 -0 -0 -0
1 1 0 -0 -0 -0 -1 -1 -1 -1 -2 -2 -2 -3 -2 -2 -2 -2 -2 -1 -1 -1 -1 -1 -0 -0 -0 -1 -1 -1 -1 -1 -1 -0 -0 -0 -0 -0 0 0 0 0 -0
1 1 0 0 -0 -0 -1 -1 -1 -1 -2 -2 -2 -2 -2 -2 -2 -2 -2 -1 -1 -1 -1 -0 -0 -0 -0 -0 -0 -1 -1 -1 -0 -0 -0 -0 0 0 0 0 0 0 0
Wind_Speed
1 1 1 1 1 2 2 3 3 3 4 5 5 5 5 6 5 5 6 6 7 9 10 11 14 13 11 10 10 10 10 11 14 12 10 11 13 14 14 14 15 14 14
2 1 1 2 2 2 3 4 4 5 5 5 5 6 7 8 7 7 8 8 8 11 12 14 16 13 14 12 10 11 11 11 12 15 12 11 14 14 14 13 11 11 10
2 2 2 3 3 3 4 5 5 6 6 6 6 7 9 9 8 8 8 8 9 11 13 15 17 16 15 13 13 12 11 11 10 12 14 12 12 12 12 12 12 8 6
3 3 3 4 4 5 6 6 6 6 7 7 7 8 9 9 8 7 6 8 10 12 14 15 16 16 16 15 13 13 12 11 11 12 13 13 12 12 9 9 8 4 3
4 4 5 5 5 6 6 7 7 7 7 7 7 8 7 6 5 5 6 9 12 15 16 16 16 18 20 16 13 11 11 11 12 12 13 13 12 10 8 6 6 2 2
4 5 5 5 6 7 7 7 7 7 7 6 6 6 6 4 5 9 11 11 13 16 17 16 16 17 17 19 20 20 18 16 14 14 13 14 14 11 8 5 3 2 2
4 5 6 6 7 8 8 7 7 6 4 4 5 5 4 5 9 12 16 14 14 14 15 14 13 14 17 14 17 20 20 23 22 18 16 15 14 9 6 5 3 2 1
4 5 6 6 7 7 6 6 5 3 4 4 5 6 5 7 12 14 18 14 14 14 14 14 14 15 15 15 15 16 16 15 16 12 11 11 9 5 5 3 4 4 3
4 6 6 6 6 6 5 5 5 5 6 5 5 6 7 9 13 16 18 12 12 15 14 14 15 14 17 18 16 15 15 12 9 6 4 5 5 5 5 5 5 3 1
5 6 6 5 4 6 7 6 5 5 6 6 7 7 8 9 14 17 18 10 12 13 13 14 16 15 17 19 15 12 12 9 5 4 8 11 10 11 11 6 4 3 1
4 5 6 7 8 8 7 6 6 6 7 7 8 9 9 10 13 16 17 11 11 12 12 11 11 16 19 20 16 9 7 4 2 6 8 9 9 9 9 8 6 4 3
6 8 8 8 7 7 7 6 6 7 8 9 9 10 9 10 11 14 18 18 17 13 11 10 11 18 20 17 9 4 2 4 5 7 9 9 8 8 8 8 9 10 9
8 8 8 8 7 6 6 6 6 7 7 8 9 10 10 10 10 15 17 19 21 14 11 17 20 19 15 8 8 10 8 7 8 9 10 9 8 7 7 7 9 11 12
9 7 6 7 6 6 5 5 5 7 8 9 9 10 10 9 10 11 11 12 14 13 12 15 17 14 9 9 9 10 9 9 9 10 9 8 7 7 8 7 7 8 10
8 7 6 6 6 6 5 4 5 4 7 9 8 8 9 10 12 18 14 11 12 13 12 8 7 8 8 8 8 9 9 9 10 9 9 8 8 8 8 8 8 9 11
7 6 5 5 5 5 6 6 8 8 12 12 12 10 8 10 16 18 20 20 19 19 11 8 8 9 9 8 8 9 9 9 9 9 8 8 8 8 9 9 9 9 10
8 6 5 5 5 5 6 7 8 9 11 12 14 15 15 16 16 17 18 19 16 15 8 8 9 9 9 8 8 8 8 8 8 8 8 8 8 8 8 9 8 8 10
8 8 6 5 5 5 6 6 7 8 9 10 11 15 17 17 16 16 17 13 11 10 8 9 9 9 9 8 8 7 7 8 8 8 8 8 8 8 8 8 8 9 10
7 5 5 4 5 5 6 7 7 9 9 9 9 12 15 15 14 15 14 10 9 9 9 9 9 9 8 8 8 7 7 8 8 7 7 8 7 7 8 8 9 11 11
5 7 6 5 5 6 6 7 8 8 9 9 9 10 11 10 9 11 10 10 10 9 9 9 8 9 8 8 8 7 7 7 8 7 7 7 6 7 8 9 9 10 10
4 5 7 5 5 6 6 7 8 8 8 8 9 12 15 9 10 11 10 10 10 10 10 9 9 8 8 7 7 7 8 7 7 7 6 6 6 6 6 8 9 9 10
4 4 4 4 5 6 7 7 8 8 9 9 9 10 14 10 10 10 10 10 10 9 9 9 8 8 7 7 7 6 7 7 6 6 6 6 5 5 6 7 8 8 9
3 3 4 4 5 7 7 8 8 8 8 8 9 9 10 10 10 10 11 10 10 10 10 9 9 8 8 8 8 6 6 6 5 6 6 5 5 5 6 7 9 9 9
3 3 4 4 5 6 6 7 8 8 8 8 8 9 9 9 10 11 11 10 10 10 12 11 10 11 13 11 9 9 9 8 8 7 6 6 6 6 7 7 8 9 10
3 3 3 4 5 5 6 7 7 8 8 8 8 8 9 9 10 11 11 10 11 10 13 14 14 14 14 14 12 10 11 12 11 9 8 6 7 7 8 8 8 9 9
3 3 3 4 4 5 5 6 7 8 8 8 8 8 9 9 9 10 11 11 11 10 12 14 17 17 18 15 14 12 11 11 11 10 9 7 7 7 7 7 9 8 9
Wind_Direction
147 105 72 346 338 343 330 309 302 295 296 293 283 275 269 266 262 259 268 281 292 301 306 309 306 302 294 287 281 275 268 265 275 283 281 286 287 288 290 286 282 278 274
218 235 281 300 310 314 305 297 292 288 287 283 276 274 272 269 264 260 270 280 290 299 305 307 306 303 294 290 284 280 276 269 273 284 290 291 289 288 285 283 282 276 265
234 252 289 295 291 288 288 290 288 284 286 285 276 273 274 274 272 269 269 280 290 296 300 302 302 299 293 288 286 282 278 275 272 283 290 290 288 285 283 282 276 266 257
241 250 268 272 272 275 280 282 281 279 280 282 278 275 278 282 282 282 284 292 298 300 300 299 296 292 287 285 284 279 279 280 281 282 285 286 283 281 274 274 271 240 223
240 250 258 264 270 274 277 278 280 281 282 283 286 288 293 293 291 302 307 307 307 308 306 301 296 292 287 285 285 286 289 288 285 282 282 282 280 278 269 258 258 215 196
239 252 262 269 274 273 274 279 286 292 295 299 302 308 316 319 332 331 327 316 313 311 307 305 301 296 295 297 295 294 291 287 286 282 279 275 273 269 262 249 225 185 202
251 266 273 273 276 278 286 293 296 300 307 322 340 350 349 334 334 330 326 324 314 307 302 300 300 297 299 293 292 295 292 287 281 275 272 268 266 260 243 229 199 177 156
267 279 285 288 289 295 305 312 322 342 2 10 17 13 355 336 334 328 326 322 310 304 300 296 292 293 292 292 296 294 290 288 286 282 270 267 261 244 221 191 139 116 100
297 304 310 312 310 326 355 17 29 40 34 26 15 2 347 331 327 324 327 319 312 309 306 301 297 293 291 295 300 296 295 296 307 346 23 51 68 87 111 119 123 118 91
322 324 336 353 27 53 60 58 49 46 33 17 4 349 335 324 319 320 323 320 313 311 308 304 300 294 295 299 300 295 293 303 328 26 54 59 63 66 66 70 87 93 82
349 28 48 63 77 78 71 60 48 37 23 9 352 337 327 319 318 318 322 325 314 309 307 307 303 300 303 303 301 291 282 294 33 68 66 63 61 59 56 54 54 65 77
61 68 67 66 74 75 68 53 37 23 11 0 349 342 334 328 325 324 323 322 321 315 311 309 308 309 312 313 316 334 36 84 81 75 70 63 61 61 61 65 70 71 72
81 75 71 70 62 56 52 37 20 9 2 353 348 344 340 339 335 327 325 324 326 325 317 318 320 321 324 336 31 57 73 79 80 76 72 69 67 69 71 75 78 77 73
89 78 69 63 49 35 29 19 9 0 355 350 347 344 340 340 342 340 333 327 328 331 327 324 325 333 358 27 49 63 69 74 81 82 82 78 72 67 65 65 72 77 82
86 77 64 52 41 25 14 360 354 336 337 340 341 341 342 345 337 332 336 339 341 339 334 335 348 0 24 46 61 69 73 76 80 82 83 80 71 68 65 60 70 81 83
85 70 58 46 34 24 14 6 354 349 338 339 340 347 345 337 333 339 342 341 341 342 347 356 5 15 30 46 60 68 72 76 80 82 81 76 71 71 72 69 74 82 86
83 72 58 46 35 24 17 11 359 350 346 347 348 352 354 349 347 345 344 341 345 350 2 10 15 22 32 45 58 69 76 79 81 83 83 78 72 73 76 78 79 81 81
77 71 63 44 30 21 12 5 360 358 357 357 354 353 353 350 348 349 348 350 1 7 12 16 19 24 31 42 54 66 77 83 87 87 83 77 72 72 76 77 77 82 81
79 67 52 38 28 19 12 7 5 3 0 358 359 0 353 348 349 356 359 7 5 8 12 17 21 25 30 37 47 59 72 83 89 88 82 78 73 72 75 77 81 76 80
76 73 59 39 26 20 16 13 10 7 3 3 6 6 357 357 7 7 8 8 9 11 11 15 19 23 27 33 43 55 69 80 87 88 85 81 74 69 74 80 84 85 86
75 59 50 39 26 19 16 14 11 11 9 5 4 1 2 7 8 7 10 9 10 10 10 12 16 18 23 29 38 50 62 77 84 89 88 81 77 73 74 84 91 94 95
79 60 43 33 23 21 19 17 17 17 12 8 3 2 3 11 10 9 9 8 8 9 10 11 14 15 16 23 31 44 57 70 82 87 86 84 80 78 84 90 94 98 98
80 60 41 28 23 21 25 23 22 20 16 11 8 7 7 9 9 9 7 5 6 8 9 11 13 14 13 20 28 37 51 61 74 86 85 82 85 89 94 98 102 104 101
75 53 34 25 27 30 29 27 24 22 19 15 11 9 7 5 6 7 5 2 5 8 11 12 13 14 19 23 28 36 43 57 73 80 81 84 90 98 101 102 101 104 101
70 51 41 37 37 35 34 32 28 24 21 18 13 9 8 7 7 5 4 3 4 8 10 13 13 13 17 24 28 35 48 64 71 78 80 81 90 99 106 108 109 109 109
67 58 56 54 49 42 38 34 30 26 22 18 15 12 11 10 7 5 4 5 4 5 8 10 10 16 19 21 23 35 52 64 70 74 78 82 87 97 108 109 113 113 116
Height
1521 1519 1518 1516 1515 1513 1511 1510 1508 1507 1506 1504 1502 1500 1497 1495 1492 1489 1486 1482 1479 1475 1470 1465 1460 1456 1451 1448 1445 1442 1439 1435 1429 1424 1424 1422 1420 1418 1415 1413 1411 1408 1407
1519 1518 1516 1514 1513 1511 1509 1508 1507 1506 1504 1501 1499 1497 1495 1492 1489 1485 1481 1478 1473 1469 1464 1459 1453 1448 1444 1440 1437 1434 1432 1429 1425 1419 1417 1415 1412 1410 1407 1405 1403 1401 1400
1518 1516 1515 1513 1512 1510 1508 1507 1505 1503 1501 1499 1497 1494 1492 1488 1485 1481 1477 1472 1468 1463 1458 1452 1446 1440 1435 1432 1429 1427 1425 1422 1419 1415 1410 1408 1405 1403 1400 1397 1396 1394 1393
1516 1515 1513 1512 1510 1508 1507 1505 1503 1501 1499 1496 1494 1491 1488 1485 1481 1476 1472 1467 1462 1456 1451 1444 1438 1433 1428 1425 1422 1421 1419 1416 1413 1409 1405 1401 1398 1395 1393 1391 1389 1389 1388
1514 1513 1512 1510 1508 1507 1505 1503 1501 1499 1496 1493 1490 1487 1484 1480 1476 1471 1466 1460 1455 1449 1443 1437 1431 1427 1423 1420 1418 1415 1413 1410 1406 1402 1398 1394 1391 1389 1387 1386 1385 1384 1384
1513 1512 1510 1508 1507 1505 1503 1501 1498 1496 1493 1490 1486 1483 1479 1475 1471 1466 1460 1454 1448 1442 1435 1430 1425 1422 1419 1416 1413 1410 1408 1404 1399 1395 1390 1387 1384 1382 1381 1381 1381 1381 1381
1511 1510 1508 1507 1505 1503 1501 1498 1495 1492 1489 1485 1482 1478 1474 1470 1465 1460 1454 1448 1442 1436 1430 1425 1421 1418 1415 1411 1407 1404 1400 1396 1392 1387 1382 1379 1377 1376 1377 1377 1378 1378 1378
1509 1508 1507 1504 1502 1500 1497 1494 1491 1488 1484 1480 1477 1473 1469 1465 1460 1454 1448 1442 1437 1432 1427 1423 1418 1414 1410 1406 1401 1397 1392 1387 1383 1379 1375 1372 1372 1372 1374 1375 1376 1376 1377
1508 1506 1504 1502 1499 1497 1494 1491 1487 1484 1480 1477 1473 1468 1464 1460 1455 1449 1444 1438 1433 1428 1424 1420 1415 1410 1406 1401 1396 1391 1386 1382 1379 1375 1372 1370 1370 1371 1373 1374 1375 1376 1376
1505 1504 1502 1499 1497 1494 1491 1488 1485 1481 1478 1474 1470 1465 1460 1456 1451 1446 1441 1436 1431 1425 1420 1416 1411 1406 1400 1396 1391 1386 1382 1380 1378 1375 1373 1372 1372 1373 1374 1374 1375 1376 1376
1503 1502 1500 1497 1495 1492 1489 1486 1483 1479 1476 1472 1467 1463 1458 1453 1448 1443 1439 1434 1429 1423 1417 1411 1406 1401 1395 1390 1386 1382 1380 1379 1378 1377 1376 1376 1375 1376 1376 1376 1377 1377 1376
1502 1501 1499 1496 1494 1491 1488 1485 1482 1478 1474 1469 1465 1460 1456 1451 1446 1442 1437 1433 1428 1422 1415 1408 1402 1397 1392 1387 1383 1381 1380 1380 1380 1380 1379 1379 1379 1379 1379 1379 1379 1378 1378
1502 1500 1498 1496 1493 1490 1487 1484 1481 1477 1473 1468 1464 1459 1455 1450 1446 1441 1437 1432 1426 1420 1413 1407 1401 1395 1390 1387 1384 1383 1383 1383 1383 1383 1384 1384 1384 1384 1383 1383 1383 1383 1382
1502 1500 1498 1495 1493 1490 1487 1484 1481 1477 1473 1469 1465 1460 1456 1451 1446 1442 1437 1431 1426 1420 1413 1407 1401 1396 1392 1390 1388 1388 1388 1388 1388 1388 1389 1389 1389 1389 1388 1388 1388 1388 1387
1502 1500 1498 1495 1493 1491 1488 1485 1482 1479 1475 1472 1467 1462 1457 1452 1448 1444 1439 1433 1427 1421 1415 1409 1404 1399 1397 1395 1394 1394 1394 1394 1394 1394 1394 1395 1395 1395 1395 1395 1395 1395 1395
1503 1500 1498 1496 1494 1492 1490 1488 1485 1482 1478 1474 1470 1465 1460 1456 1451 1446 1441 1436 1430 1424 1418 1413 1408 1405 1402 1401 1401 1401 1400 1400 1400 1400 1400 1401 1401 1402 1402 1402 1403 1403 1403
1504 1502 1500 1498 1497 1495 1492 1489 1486 1484 1480 1475 1471 1466 1462 1457 1453 1448 1443 1439 1433 1428 1422 1418 1414 1411 1409 1408 1408 1407 1407 1407 1407 1407 1407 1408 1409 1409 1409 1410 1411 1411 1412
1506 1504 1502 1501 1499 1497 1494 1491 1488 1484 1480 1476 1472 1468 1464 1459 1455 1451 1446 1442 1437 1432 1427 1424 1420 1418 1416 1415 1414 1414 1413 1413 1413 1414 1414 1415 1416 1417 1417 1418 1419 1420 1421
1508 1507 1506 1504 1502 1499 1497 1494 1490 1486 1483 1479 1474 1470 1466 1462 1458 1454 1450 1445 1441 1437 1433 1430 1427 1424 1422 1421 1420 1420 1419 1419 1419 1420 1421 1422 1423 1424 1425 1426 1427 1428 1429
1512 1511 1509 1507 1505 1502 1499 1496 1492 1488 1485 1481 1477 1474 1470 1465 1461 1457 1454 1450 1446 1442 1439 1436 1433 1431 1429 1427 1426 1425 1425 1425 1425 1426 1427 1428 1429 1431 1432 1433 1434 1435 1437
1516 1514 1513 1511 1508 1505 1502 1498 1494 1491 1487 1484 1481 1478 1474 1470 1466 1462 1458 1454 1451 1447 1444 1441 1439 1436 1435 1433 1432 1431 1430 1431 1431 1432 1433 1434 1436 1437 1439 1440 1441 1443 1444
1520 1518 1516 1514 1511 1508 1505 1501 1497 1494 1490 1487 1484 1481 1478 1474 1470 1466 1463 1459 1456 1453 1449 1446 1444 1441 1440 1438 1437 1436 1436 1436 1436 1437 1439 1440 1442 1443 1445 1446 1448 1449 1451
1524 1522 1520 1518 1515 1512 1508 1505 1501 1497 1494 1490 1487 1484 1481 1478 1474 1471 1467 1464 1461 1457 1454 1451 1448 1446 1445 1443 1443 1442 1441 1441 1442 1443 1444 1445 1447 1448 1450 1452 1453 1455 1457
1527 1526 1524 1521 1518 1515 1512 1508 1505 1501 1497 1494 1491 1488 1485 1482 1479 1475 1472 1468 1465 1462 1459 1456 1453 1451 1450 1448 1448 1447 1447 1447 1448 1448 1449 1451 1452 1454 1455 1457 1459 1461 1463
1531 1529 1527 1524 1522 1519 1516 1512 1509 1505 1501 1498 1495 1492 1489 1486 1483 1480 1476 1473 1470 1467 1464 1461 1459 1456 1455 1454 1453 1453 1453 1453 1453 1454 1455 1456 1458 1459 1460 1462 1464 1466 1468
1534 1532 1530 1527 1525 1522 1519 1516 1512 1509 1506 1502 1499 1496 1493 1490 1487 1484 1481 1478 1475 1472 1469 1466 1464 1462 1460 1459 1459 1458 1459 1459 1459 1460 1461 1462 1463 1464 1466 1467 1469 1471 1473